Temperature
18 19 19 19 18 18 17 17 16 15 14 13 13 12 12 11 11 10 10 9 9 8 8 8 8 7 7 7 7 7 7 7 6 5 6 6 6 7 7 7 7 7 7
18 18 18 18 18 17 17 16 16 15 14 14 13 13 12 11 11 10 9 9 9 8 8 7 7 7 6 6 6 6 6 6 5 5 4 4 5 7 7 7 7 7 6
16 17 17 17 16 16 16 15 15 14 14 13 13 12 11 11 10 10 10 10 9 8 8 7 7 6 6 6 6 5 5 5 5 4 3 3 4 5 6 6 6 6 6
16 16 16 16 16 15 15 15 14 14 13 13 12 12 11 11 11 10 10 9 9 8 7 7 6 6 6 5 5 5 5 4 4 3 3 3 3 3 3 4 5 4 4
15 15 15 15 15 15 14 14 14 13 12 12 11 11 11 10 10 9 9 9 8 8 7 7 6 6 5 5 5 5 4 4 4 3 3 2 2 1 0 1 2 3 3
14 14 14 14 14 14 14 13 13 13 12 12 11 11 10 10 9 9 9 8 8 7 7 6 6 6 5 5 5 4 4 4 3 3 2 2 1 1 -0 -1 -0 0 1
14 13 13 13 13 13 13 13 12 12 12 12 11 11 10 10 9 9 9 8 8 7 7 6 6 6 5 5 5 4 4 4 3 3 3 2 2 1 0 -1 -1 -1 -0
13 13 13 13 13 12 12 12 12 11 11 11 10 10 10 9 9 9 8 8 8 7 7 6 6 5 5 5 4 4 4 3 3 3 3 2 2 1 0 -1 -1 -2 -2
13 13 12 12 12 12 12 11 11 11 11 10 10 9 9 9 9 8 8 8 7 7 7 6 6 5 5 4 4 3 3 3 3 3 2 2 1 1 -0 -1 -2 -3 -4
13 12 12 12 12 11 11 11 10 10 10 9 9 9 8 8 8 8 8 7 7 7 7 6 6 5 5 4 4 3 3 3 3 2 2 1 1 1 -0 -1 -2 -3 -4
12 12 12 11 11 11 10 10 10 10 9 9 8 8 8 8 7 7 7 7 7 6 6 6 5 5 5 4 4 3 3 3 2 2 2 1 1 0 -1 -1 -2 -3 -4
12 11 11 11 10 10 10 10 9 9 8 8 8 7 7 7 7 7 6 6 6 6 5 5 5 4 4 4 3 3 3 2 2 2 1 1 1 0 -1 -1 -2 -3 -4
11 11 10 10 10 9 9 9 8 8 7 7 7 7 6 6 6 6 6 5 5 5 4 4 4 4 4 3 3 2 2 1 1 1 1 0 0 -0 -1 -1 -2 -3 -4
10 10 9 9 9 8 8 8 7 7 7 6 6 6 6 5 5 5 5 4 4 4 3 3 3 3 2 2 2 2 1 1 0 0 -0 -0 -1 -1 -1 -2 -2 -3 -4
9 9 8 8 8 7 7 7 6 6 6 6 5 5 5 5 5 4 4 4 3 3 2 2 2 2 1 1 1 1 0 -0 -0 -0 -1 -1 -1 -2 -2 -3 -4 -4 -5
8 8 7 7 7 6 6 6 6 5 5 5 5 5 4 4 4 3 3 3 2 2 1 1 1 1 1 0 -0 -1 -1 -2 -2 -2 -2 -2 -2 -3 -4 -5 -5 -6 -6
7 7 6 6 6 5 5 5 5 5 4 4 4 4 3 3 3 2 2 1 1 1 0 0 0 -0 -0 -0 -1 -1 -2 -2 -2 -2 -2 -3 -3 -3 -4 -4 -5 -5 -5
6 6 6 5 5 5 4 4 4 4 4 3 3 2 2 2 1 1 1 0 -0 -0 -1 -1 -1 -1 -1 -1 -1 -2 -2 -2 -2 -3 -3 -3 -3 -4 -4 -5 -5 -5 -5
6 5 5 5 4 4 4 4 4 3 3 2 2 1 1 0 0 -0 -0 -1 -1 -1 -1 -2 -1 -1 -1 -1 -2 -2 -3 -3 -3 -3 -3 -4 -4 -4 -5 -6 -6 -6 -6
5 5 4 4 4 4 3 3 3 2 2 1 0 0 -0 -1 -1 -1 -1 -1 -2 -2 -2 -2 -2 -2 -2 -2 -2 -3 -3 -3 -3 -3 -4 -5 -5 -5 -6 -6 -6 -7 -6
4 4 4 4 3 3 2 2 2 1 1 0 -0 -0 -1 -1 -2 -2 -2 -2 -2 -2 -2 -2 -2 -2 -2 -2 -3 -3 -4 -4 -4 -4 -4 -5 -5 -6 -6 -6 -6 -6 -7
4 4 3 3 3 2 2 1 1 1 0 -0 -1 -1 -1 -2 -2 -2 -2 -3 -3 -3 -3 -3 -3 -3 -3 -3 -3 -3 -4 -4 -4 -5 -5 -5 -5 -6 -6 -6 -6 -6 -6
4 3 2 2 2 2 1 1 0 -0 -1 -1 -2 -2 -2 -2 -3 -3 -3 -3 -3 -4 -4 -4 -4 -4 -3 -3 -3 -4 -4 -4 -5 -5 -5 -6 -6 -6 -6 -6 -6 -6 -6
3 2 2 2 1 1 1 0 -0 -1 -2 -2 -2 -3 -3 -3 -3 -4 -4 -4 -5 -5 -5 -5 -4 -4 -4 -4 -3 -4 -4 -4 -5 -5 -5 -6 -6 -6 -6 -6 -6 -6 -6
2 2 1 1 1 1 0 -0 -1 -2 -2 -3 -3 -3 -4 -4 -4 -4 -5 -5 -5 -5 -5 -4 -4 -4 -4 -4 -4 -4 -4 -4 -5 -5 -6 -6 -6 -6 -6 -6 -6 -6 -6
2 1 1 1 0 0 -0 -1 -2 -3 -3 -4 -4 -4 -4 -5 -5 -6 -6 -5 -5 -5 -5 -4 -4 -4 -4 -4 -4 -4 -4 -4 -5 -5 -5 -6 -6 -6 -6 -6 -6 -6 -6
Wind_Speed
8 9 5 1 5 8 11 13 14 14 11 8 9 10 12 10 8 14 19 21 22 23 21 16 14 14 10 12 11 8 9 8 4 4 6 6 10 14 12 15 15 18 21
11 11 9 6 1 5 8 10 12 12 13 13 11 7 7 6 7 8 14 20 22 22 22 17 11 12 10 11 11 10 7 7 7 6 3 6 6 9 15 13 13 13 16
8 9 9 7 4 1 4 7 9 11 12 11 6 3 2 2 4 7 8 14 21 22 23 20 17 13 13 14 14 13 13 11 9 8 6 5 8 4 5 9 12 11 11
7 7 8 7 6 4 2 2 5 7 8 8 8 10 10 11 11 10 10 10 17 20 22 21 19 14 14 16 15 15 13 13 12 8 10 9 5 4 5 4 6 9 12
6 6 7 7 7 6 5 3 0 3 5 7 10 10 12 13 9 7 9 10 10 15 19 20 17 15 15 16 15 14 15 15 15 12 7 11 10 10 8 11 6 4 6
4 5 6 6 7 7 6 5 3 1 3 6 8 10 13 13 11 10 10 10 9 10 13 16 15 15 15 16 17 16 17 17 17 15 12 9 8 9 11 17 14 9 6
2 3 6 7 7 7 6 5 4 3 3 4 7 9 12 12 14 13 12 11 10 10 12 14 15 16 16 15 14 16 18 19 17 18 16 15 16 8 8 12 13 9 6
1 1 2 3 4 5 5 5 4 4 4 4 6 8 9 8 10 11 11 11 11 11 11 13 15 16 16 16 16 16 18 16 19 20 19 16 15 13 12 10 9 10 8
2 0 2 2 3 4 4 4 4 5 6 6 6 7 7 8 10 11 9 10 11 10 11 11 13 15 16 16 16 16 18 17 18 18 18 18 15 13 12 11 11 12 14
3 2 2 2 3 3 4 4 4 5 5 6 6 6 7 8 8 8 9 10 11 10 11 11 12 13 14 15 15 16 16 17 18 15 16 18 14 13 12 13 11 13 16
4 4 4 4 4 4 5 5 5 5 6 6 6 7 8 8 7 8 9 10 10 10 10 11 11 12 14 14 14 16 15 18 18 16 17 20 16 14 12 12 13 14 14
3 4 4 5 5 6 7 6 6 6 7 6 7 7 8 8 8 9 10 10 10 10 10 10 11 12 13 13 14 16 16 17 18 18 18 19 15 17 15 14 15 15 15
4 4 5 6 7 7 7 7 7 7 7 7 7 8 8 9 9 10 10 10 10 10 10 10 11 12 12 13 14 15 16 16 17 17 18 18 17 18 16 16 16 14 15
4 5 5 6 7 7 7 7 8 7 8 7 8 9 10 10 10 10 10 10 10 10 11 11 12 12 12 13 13 14 15 15 16 16 17 17 17 19 18 16 16 14 14
6 6 6 7 7 8 8 7 8 8 8 8 9 10 10 10 10 10 10 10 10 11 11 12 12 12 11 11 12 12 14 15 15 15 15 16 20 24 19 15 12 12 13
7 8 8 8 8 8 8 8 8 9 8 9 10 11 11 11 11 11 11 11 11 11 11 12 13 13 12 19 24 19 12 13 14 15 14 15 20 25 30 31 27 22 17
8 8 8 8 9 8 7 8 8 9 9 10 11 11 11 12 12 12 11 12 12 11 12 12 13 14 16 24 25 25 16 11 12 13 12 12 13 20 14 21 29 27 31
7 7 7 7 7 7 8 8 9 10 10 11 11 12 11 12 12 12 13 13 11 11 12 12 13 13 16 24 25 25 16 10 10 11 12 13 12 13 14 12 13 14 15
6 6 6 6 7 9 9 9 10 10 11 12 12 12 12 13 13 13 14 13 12 12 12 12 13 14 16 22 24 23 10 9 10 10 10 12 11 19 23 15 13 13 13
6 6 6 7 9 10 9 10 11 11 12 13 12 12 12 13 15 15 14 13 12 13 12 12 12 13 13 20 23 22 8 8 8 7 9 16 16 19 22 14 13 14 12
7 7 7 8 9 10 9 11 12 13 14 13 13 13 12 13 14 14 12 13 13 13 13 13 12 12 14 18 21 20 9 7 8 7 7 9 18 21 22 20 13 17 13
7 7 8 9 10 10 10 13 14 15 14 13 14 14 13 12 12 13 14 12 13 13 13 13 13 10 10 14 16 20 18 16 8 8 6 9 17 20 21 17 18 22 19
8 8 9 11 11 10 10 14 17 16 16 15 14 14 14 12 11 13 14 13 11 11 12 11 12 11 9 10 19 20 20 19 10 7 12 14 17 18 15 19 21 18 12
9 8 10 12 14 12 11 12 15 16 15 16 15 13 14 13 11 10 11 12 12 12 12 12 12 11 10 8 8 8 10 12 11 8 11 15 16 13 13 13 11 8 7
8 8 10 13 16 15 14 13 13 14 15 15 14 13 12 13 13 11 11 13 11 14 15 12 12 13 13 13 19 14 7 6 8 7 5 4 4 5 6 7 7 5 5
10 11 12 13 15 15 15 14 13 12 14 15 14 12 11 11 11 13 14 18 19 24 25 23 21 15 19 24 24 22 20 19 16 10 6 6 6 7 7 7 6 6 6
Wind_Direction
347 355 353 208 188 195 198 200 202 202 189 187 196 204 215 213 212 215 214 213 213 211 212 220 214 209 217 222 217 220 224 229 197 232 275 269 245 243 240 237 236 234 232
12 10 18 34 149 205 208 205 204 198 197 204 204 203 211 216 217 218 218 216 215 215 218 219 217 212 218 222 216 211 221 222 190 192 225 288 291 244 237 231 231 234 230
24 11 15 23 23 306 228 218 212 204 203 200 186 178 171 264 224 223 224 218 217 217 220 221 220 216 216 226 221 213 216 227 212 199 187 214 248 297 258 234 232 228 224
31 22 17 16 9 347 324 243 215 208 204 189 190 198 212 226 228 227 229 222 218 220 221 223 222 221 221 227 224 218 218 219 228 216 222 224 200 235 293 266 236 229 227
40 29 20 17 12 9 18 15 126 211 202 198 204 211 228 238 244 237 236 234 227 226 225 224 224 226 226 228 226 221 217 219 228 222 212 228 236 231 246 272 275 259 237
40 26 17 23 17 16 23 27 28 313 221 211 217 223 236 245 252 249 245 245 240 234 229 227 228 229 230 229 227 225 222 224 225 227 221 213 216 218 224 245 255 252 239
47 21 27 24 17 16 11 9 7 331 289 236 234 234 241 246 250 254 252 252 251 245 237 231 233 234 234 232 228 226 228 227 227 228 229 229 231 218 214 234 250 251 240
242 359 22 19 4 6 6 356 343 318 305 274 259 252 248 250 255 256 254 255 256 254 245 234 237 237 236 234 230 231 231 231 231 233 231 234 234 226 223 225 233 254 252
219 310 357 3 353 351 345 331 320 308 302 287 279 274 263 254 257 263 260 261 262 262 254 244 242 242 240 237 233 234 234 232 232 234 232 234 235 229 227 223 218 234 258
240 262 303 325 335 331 325 325 306 291 289 289 280 275 273 266 265 270 270 266 267 266 265 259 252 250 246 242 238 239 237 235 234 233 232 234 235 231 226 225 223 224 241
250 276 301 321 328 329 326 320 313 306 302 296 288 285 284 283 281 274 272 271 272 271 268 266 262 257 253 247 243 242 238 237 238 233 233 235 230 231 228 225 225 228 229
277 294 308 326 329 324 320 317 310 304 297 295 294 290 289 291 288 282 278 276 274 272 269 269 267 264 260 253 247 247 243 240 239 236 234 236 231 230 228 227 228 229 227
325 334 337 328 318 312 310 309 305 300 298 300 301 300 298 295 290 285 283 281 277 276 275 272 270 268 264 258 253 251 249 244 241 237 235 235 229 232 229 227 228 228 229
351 346 330 317 309 305 303 303 303 303 304 306 305 301 297 293 289 287 286 283 280 278 277 274 271 269 266 261 259 254 252 249 246 241 237 234 229 231 228 229 227 225 226
355 335 319 309 307 307 306 306 306 307 308 309 306 301 298 296 294 292 288 285 282 279 276 277 276 273 270 265 261 255 253 251 250 246 240 237 235 235 233 232 225 219 222
324 316 311 310 309 308 307 309 308 308 310 309 304 301 301 301 299 295 291 288 284 281 279 276 276 275 275 280 284 280 256 247 246 247 243 240 246 248 247 244 236 222 219
302 304 305 302 302 303 304 306 302 306 309 305 301 301 301 300 296 295 293 289 286 282 280 278 276 275 276 286 290 287 282 256 245 242 242 242 239 243 238 247 249 244 233
298 301 301 301 301 302 305 303 304 307 306 303 301 300 300 298 296 294 292 290 286 283 283 282 278 277 280 290 294 293 286 268 251 241 236 235 234 231 231 229 234 238 242
290 289 291 291 298 303 303 307 308 307 305 302 300 298 297 298 298 296 293 291 289 287 284 282 281 280 284 291 296 295 278 267 259 246 236 236 233 240 243 235 229 233 235
298 299 303 303 307 306 310 310 308 308 305 302 299 296 295 296 297 296 295 293 289 289 289 286 281 279 281 289 297 296 278 270 267 253 241 249 248 244 247 240 229 230 228
292 299 304 304 301 303 308 306 305 303 301 299 298 296 293 293 295 295 294 295 294 292 291 289 286 281 282 291 296 297 289 266 265 260 246 239 256 256 249 240 230 233 225
299 303 303 301 300 302 305 305 304 302 302 300 298 296 294 295 299 297 298 295 294 295 295 294 293 286 283 289 293 295 294 289 270 262 250 243 254 255 254 248 237 234 233
295 297 297 299 300 298 296 299 303 304 305 303 300 298 297 294 292 294 298 299 296 295 297 296 296 295 288 286 294 297 296 294 287 266 266 262 260 258 255 252 245 238 229
296 297 301 304 306 305 297 290 297 302 303 303 302 301 301 301 297 292 293 295 296 295 295 296 295 295 293 286 279 275 280 283 284 283 280 279 273 264 246 244 251 241 225
292 293 295 300 303 306 303 298 297 301 302 302 301 302 299 299 302 297 293 294 287 288 294 294 294 296 297 294 295 294 276 256 252 256 243 244 251 248 236 226 226 221 213
293 296 296 297 301 304 305 305 302 299 301 306 306 304 302 301 302 303 302 297 296 297 297 296 295 292 291 297 300 301 300 296 285 273 235 226 232 236 234 221 214 208 205
Height
1506 1504 1502 1501 1501 1501 1503 1505 1507 1509 1511 1512 1513 1514 1514 1515 1516 1517 1518 1519 1520 1521 1522 1522 1523 1524 1524 1524 1525 1525 1524 1523 1525 1523 1519 1516 1515 1513 1512 1513 1513 1513 1513
1506 1504 1503 1501 1501 1501 1501 1503 1504 1506 1507 1508 1509 1510 1511 1511 1512 1513 1512 1513 1513 1513 1514 1514 1514 1515 1515 1515 1515 1516 1515 1515 1516 1515 1513 1508 1504 1500 1502 1502 1501 1502 1504
1508 1506 1504 1503 1502 1501 1501 1501 1502 1503 1504 1505 1506 1506 1507 1506 1506 1506 1506 1506 1506 1506 1506 1505 1505 1505 1505 1505 1505 1506 1506 1505 1506 1506 1507 1504 1496 1493 1490 1490 1490 1492 1493
1510 1508 1506 1504 1503 1502 1501 1500 1500 1501 1502 1503 1503 1502 1501 1500 1499 1500 1500 1500 1499 1498 1497 1497 1496 1496 1495 1494 1495 1495 1495 1496 1494 1494 1493 1493 1492 1492 1484 1481 1481 1482 1483
1512 1509 1507 1506 1504 1503 1501 1500 1500 1500 1500 1500 1500 1499 1497 1496 1495 1494 1493 1492 1491 1490 1489 1488 1488 1486 1485 1484 1484 1484 1484 1483 1483 1482 1482 1481 1481 1480 1479 1473 1471 1471 1472
1513 1511 1509 1508 1506 1505 1503 1502 1501 1500 1499 1498 1497 1496 1494 1492 1491 1488 1487 1485 1484 1482 1481 1480 1479 1477 1475 1474 1473 1473 1473 1471 1470 1471 1470 1470 1468 1466 1467 1465 1462 1462 1463
1514 1512 1511 1509 1507 1506 1505 1503 1502 1501 1499 1498 1496 1494 1492 1489 1486 1484 1481 1479 1476 1474 1472 1472 1469 1467 1465 1464 1463 1461 1460 1460 1458 1458 1457 1456 1454 1456 1457 1456 1453 1452 1452
1514 1513 1511 1510 1508 1507 1505 1504 1502 1500 1499 1497 1494 1492 1489 1486 1483 1480 1476 1473 1470 1467 1465 1463 1460 1458 1456 1454 1452 1450 1448 1447 1446 1445 1445 1444 1443 1444 1444 1444 1446 1443 1441
1514 1513 1512 1510 1509 1507 1505 1503 1501 1499 1497 1494 1492 1489 1486 1482 1479 1475 1472 1468 1464 1461 1458 1455 1451 1449 1446 1444 1442 1438 1436 1435 1433 1432 1432 1431 1431 1432 1432 1433 1435 1437 1432
1514 1513 1512 1510 1508 1506 1504 1502 1499 1496 1494 1491 1488 1484 1481 1478 1474 1470 1466 1462 1458 1455 1451 1447 1443 1440 1437 1434 1431 1427 1425 1423 1421 1420 1420 1418 1419 1420 1421 1422 1422 1423 1422
1513 1512 1511 1509 1507 1505 1502 1499 1496 1493 1490 1487 1483 1479 1476 1472 1468 1464 1460 1456 1452 1447 1443 1439 1434 1430 1427 1424 1420 1416 1414 1411 1409 1408 1407 1405 1408 1408 1408 1409 1410 1410 1411
1512 1511 1509 1507 1505 1502 1499 1496 1493 1489 1486 1482 1478 1474 1470 1466 1462 1458 1454 1449 1444 1440 1435 1430 1425 1421 1416 1413 1409 1405 1402 1399 1396 1396 1395 1394 1396 1395 1396 1397 1397 1397 1398
1510 1509 1507 1505 1502 1499 1496 1492 1488 1485 1481 1477 1473 1469 1465 1460 1456 1451 1446 1441 1436 1431 1426 1421 1415 1410 1406 1401 1397 1393 1389 1387 1384 1383 1382 1382 1383 1382 1383 1384 1384 1385 1386
1508 1506 1504 1502 1499 1495 1491 1487 1484 1480 1476 1471 1467 1463 1458 1454 1449 1444 1438 1433 1428 1422 1417 1411 1405 1400 1395 1390 1386 1381 1377 1374 1372 1371 1370 1369 1370 1369 1371 1371 1371 1373 1374
1506 1503 1501 1498 1494 1490 1486 1483 1479 1475 1470 1466 1461 1457 1452 1447 1441 1436 1430 1425 1419 1413 1407 1401 1395 1390 1384 1379 1374 1370 1365 1362 1359 1358 1357 1357 1357 1357 1358 1358 1358 1361 1362
1503 1500 1497 1493 1489 1485 1481 1478 1474 1470 1465 1460 1456 1450 1445 1439 1433 1427 1421 1415 1409 1403 1397 1391 1385 1379 1374 1370 1365 1360 1355 1351 1348 1346 1345 1346 1346 1346 1348 1348 1349 1349 1350
1499 1495 1492 1488 1485 1481 1477 1473 1469 1464 1459 1454 1449 1443 1437 1430 1424 1418 1411 1405 1399 1392 1386 1380 1375 1369 1364 1360 1355 1350 1346 1342 1338 1336 1335 1334 1334 1335 1335 1337 1339 1341 1341
1494 1491 1487 1484 1481 1477 1473 1468 1464 1458 1453 1447 1441 1435 1428 1421 1415 1408 1402 1395 1389 1383 1376 1370 1365 1359 1355 1350 1345 1341 1336 1332 1329 1327 1325 1324 1324 1325 1325 1325 1326 1328 1330
1490 1487 1484 1480 1476 1472 1468 1462 1457 1451 1445 1439 1432 1426 1420 1413 1406 1399 1393 1386 1380 1373 1367 1361 1356 1350 1345 1341 1336 1332 1326 1322 1320 1318 1317 1315 1314 1315 1316 1316 1315 1316 1318
1486 1483 1479 1476 1472 1467 1462 1456 1450 1444 1437 1431 1425 1419 1412 1406 1398 1391 1384 1378 1371 1364 1358 1352 1347 1342 1336 1332 1328 1324 1318 1314 1311 1309 1308 1307 1306 1306 1307 1307 1307 1307 1309
1482 1478 1475 1471 1467 1462 1456 1449 1443 1437 1430 1424 1417 1410 1404 1398 1390 1383 1376 1369 1362 1355 1349 1343 1338 1334 1329 1324 1320 1316 1312 1308 1304 1301 1300 1299 1299 1299 1299 1299 1299 1300 1303
1477 1474 1470 1466 1461 1456 1450 1442 1436 1430 1423 1415 1408 1401 1395 1389 1382 1374 1366 1360 1353 1346 1340 1334 1329 1325 1321 1317 1313 1309 1306 1302 1299 1295 1293 1292 1291 1291 1292 1292 1293 1295 1298
1472 1468 1464 1459 1454 1450 1444 1437 1429 1422 1414 1407 1399 1392 1386 1379 1373 1366 1358 1351 1345 1339 1332 1327 1321 1317 1313 1310 1306 1303 1299 1296 1293 1289 1287 1286 1285 1284 1285 1286 1287 1290 1292
1467 1463 1458 1452 1446 1441 1436 1430 1423 1415 1407 1398 1390 1383 1377 1369 1363 1357 1351 1344 1337 1332 1326 1321 1316 1311 1306 1303 1299 1295 1292 1289 1286 1283 1281 1280 1279 1278 1279 1280 1281 1283 1285
1461 1457 1452 1446 1439 1433 1427 1421 1415 1407 1398 1390 1382 1375 1369 1362 1354 1348 1343 1336 1330 1327 1321 1315 1311 1306 1300 1297 1294 1290 1286 1282 1279 1277 1274 1274 1273 1272 1273 1274 1276 1278 1280
1455 1450 1445 1439 1432 1425 1419 1413 1406 1399 1391 1382 1374 1367 1361 1354 1347 1339 1332 1328 1324 1318 1314 1310 1305 1300 1296 1291 1287 1283 1280 1277 1274 1272 1269 1268 1268 1268 1268 1269 1271 1273 1275